date,time,DOY,Ta_1_1_1,Pa_1_1_1,RH_1_1_1,LWin_1_1_1,LWout_1_1_1,SWin_1_1_1,SWout_1_1_1,PPFD_1_1_1,MWS_1_1_1,WD_1_1_1,SWC_1_1_1,Ts_1_1_1
[yyyy-mm-dd],[HH:MM],[ddd.ddd],[K],[Pa],[%],[W+1m-2],[W+1m-2],[W+1m-2],[W+1m-2],[µmol+1m-2s-1],[m+1s-1],[deg],[m+3m-3],[K]
2014-07-25,00:30,206.020,289.67666666666662,94777.966666666660,75.989000000000019,-1.5406666666666666,-9999.0,0.44599999999999984,-1.2189999999999999,-3.56666666666666729E-002,3.3866666666666663,172.69999999999999,0.24000000000000016,288.30900000000014
2014-07-25,01:00,206.041,289.49333333333345,94775.399999999994,76.460999999999984,-1.5899999999999999,-9999.0,0.31833333333333341,-1.2153333333333336,-3.26666666666666841E-002,2.8066666666666671,176.83299999999997,0.24000000000000016,288.27266666666679
2014-07-25,01:30,206.062,289.48700000000002,94737.899999999994,75.299333333333337,-1.8389999999999995,-9999.0,0.36933333333333335,-1.1763333333333330,-2.56666666666666744E-002,3.1666666666666670,174.27666666666667,0.24000000000000016,288.25133333333338
2014-07-25,02:00,206.083,289.48300000000000,94703.800000000003,74.900333333333336,-2.4329999999999998,-9999.0,0.37899999999999995,-1.7320000000000002,-2.83333333333333423E-002,3.0500000000000003,171.87799999999999,0.24000000000000016,288.23499999999996
2014-07-25,02:30,206.104,289.28000000000009,94660.233333333337,76.473333333333343,-2.0816666666666666,-9999.0,0.41933333333333334,-1.4693333333333336,-2.10000000000000048E-002,2.7399999999999998,158.96700000000001,0.24000000000000016,288.20766666666663
2014-07-25,03:00,206.124,289.12200000000007,94629.366666666669,78.737333333333325,-2.6076666666666664,-9999.0,0.42566666666666658,-2.7203333333333335,-3.10000000000000102E-002,2.6099999999999994,158.17866666666669,0.24000000000000016,288.17033333333330
2014-07-25,03:30,206.145,288.78433333333345,94641.233333333337,80.941000000000003,-2.1473333333333331,-9999.0,0.47533333333333339,-1.4390000000000003,-3.26666666666666841E-002,2.6433333333333331,147.14533333333333,0.24000000000000016,288.11666666666673
2014-07-25,04:00,206.166,288.69233333333347,94651.666666666672,81.301666666666677,-1.7070000000000003,-9999.0,0.31366666666666670,-1.2746666666666664,-1.50000000000000012E-002,3.2800000000000002,155.62166666666664,0.24000000000000016,288.07466666666670
2014-07-25,04:30,206.187,288.70900000000000,94649.199999999997,81.412666666666667,-1.5799999999999998,-9999.0,0.71966666666666668,-0.24566666666666676,1.9109999999999998,3.3366666666666660,175.34433333333334,0.24000000000000016,288.04500000000007
2014-07-25,05:00,206.208,288.60133333333329,94636.266666666663,82.784666666666681,-1.0283333333333335,-9999.0,3.2133333333333334,11.693666666666664,22.603333333333339,3.1300000000000003,178.24533333333332,0.24000000000000016,288.02133333333347
2014-07-25,05:30,206.229,288.96666666666664,94640.800000000003,83.257666666666665,-0.32933333333333337,-9999.0,7.5610000000000017,34.340333333333334,62.220999999999989,3.5966666666666662,183.94500000000002,0.24000000000000016,288.01566666666679
2014-07-25,06:00,206.249,289.26000000000005,94655.566666666666,83.844333333333353,-0.54733333333333323,-9999.0,10.234333333333334,54.041666666666664,110.07966666666670,3.1966666666666668,181.93266666666665,0.24000000000000016,288.04066666666671
2014-07-25,06:30,206.270,289.57033333333345,94606.666666666672,83.997666666666660,-0.32566666666666666,-9999.0,22.578333333333333,125.02299999999998,253.71500000000000,3.8599999999999990,170.56666666666666,0.24000000000000016,288.10766666666660
2014-07-25,07:00,206.291,290.21666666666675,94614.666666666672,83.927000000000007,-0.77066666666666661,-9999.0,44.845999999999997,245.88366666666667,475.24433333333326,4.8466666666666667,185.58933333333334,0.24000000000000016,288.21800000000002
2014-07-25,07:30,206.312,289.84566666666666,94597.866666666669,87.738333333333330,0.93700000000000006,-3.5655172413793101,50.342333333333322,279.36300000000000,565.03599999999994,6.1066666666666674,183.98866666666666,0.24000000000000016,288.37933333333336
2014-07-25,08:00,206.333,290.44233333333341,94545.300000000003,85.414999999999992,-0.64533333333333320,-5.7690909090909086,77.665999999999983,442.51966666666669,881.25933333333319,5.1699999999999999,174.64466666666667,0.24000000000000016,288.55200000000002
2014-07-25,08:30,206.354,290.64133333333342,94473.899999999994,82.682000000000002,-1.0996666666666668,-9999.0,56.892666666666663,325.72333333333330,654.46033333333321,5.4700000000000006,163.15566666666666,0.24000000000000016,288.75266666666664
2014-07-25,09:00,206.374,290.11466666666666,94448.066666666666,85.518666666666661,-0.83033333333333337,-9.4499999999999993,24.189000000000000,131.98233333333332,274.28433333333334,4.7133333333333329,158.28799999999998,0.24000000000000016,288.86500000000001
2014-07-25,09:30,206.395,289.79000000000013,94457.733333333337,87.211666666666659,-0.13499999999999993,-7.4490000000000007,23.789666666666669,134.03066666666666,294.05966666666666,4.2366666666666664,155.78900000000004,0.24000000000000016,288.85500000000008
2014-07-25,10:00,206.416,290.00900000000013,94442.433333333334,86.569333333333333,-6.49999999999999883E-002,-9999.0,44.202999999999996,247.71166666666667,514.40300000000013,4.7500000000000000,155.15600000000001,0.24000000000000016,288.85300000000007
2014-07-25,10:30,206.437,290.64800000000008,94424.500000000000,83.188666666666691,0.51166666666666683,-9999.0,79.932333333333332,470.20966666666669,956.68966666666643,5.0799999999999983,161.45600000000002,0.24000000000000016,288.93933333333342
2014-07-25,11:00,206.458,291.46533333333332,94443.966666666660,79.748333333333363,-0.62166666666666670,-9999.0,58.923333333333318,344.10166666666663,701.50366666666662,5.4999999999999991,180.83300000000003,0.24000000000000016,289.13633333333331
2014-07-25,11:30,206.479,291.89766666666674,94439.266666666663,78.357666666666631,2.13333333333332771E-002,-8.8800000000000008,66.861999999999995,390.12299999999993,804.05066666666653,5.4066666666666663,182.36633333333333,0.24000000000000016,289.28433333333339
2014-07-25,12:00,206.499,292.65000000000003,94394.833333333328,75.218666666666678,-0.54233333333333333,-7.7800000000000002,92.610666666666646,546.67099999999994,1114.1199999999999,4.8600000000000012,179.51166666666668,0.24000000000000016,289.46899999999999
2014-07-25,12:30,206.520,292.80433333333337,94405.266666666663,73.662333333333351,-1.7663333333333335,-9999.0,68.080333333333314,405.32800000000009,831.72433333333322,4.2600000000000007,194.56533333333334,0.24000000000000016,289.67800000000000
2014-07-25,13:00,206.541,292.95700000000005,94414.100000000006,73.964333333333315,-1.3839999999999999,-9999.0,67.371666666666655,401.24699999999996,827.21466666666663,4.2900000000000000,199.67766666666665,0.24000000000000016,289.78000000000003
2014-07-25,13:30,206.562,292.93166666666667,94399.033333333340,74.938000000000017,-0.58166666666666667,-9999.0,80.247333333333344,471.17433333333338,966.91333333333330,4.5899999999999999,199.53399999999999,0.24000000000000016,289.86599999999999
2014-07-25,14:00,206.583,292.87466666666671,94401.733333333337,74.074666666666687,-1.6206666666666669,-9999.0,71.131333333333316,425.27100000000002,887.45299999999997,4.7066666666666670,188.30033333333333,0.24000000000000016,289.98066666666676
2014-07-25,14:30,206.604,292.93333333333339,94387.566666666666,75.654333333333341,-1.6699999999999997,-9999.0,55.512333333333338,329.84700000000004,685.75899999999979,3.8866666666666654,189.63366666666667,0.23866666666666686,290.04566666666676
2014-07-25,15:00,206.624,292.95166666666665,94355.899999999994,77.099333333333348,-1.1469999999999998,-9999.0,81.034000000000006,477.08566666666661,986.16200000000003,3.6699999999999999,165.23366666666666,0.23000000000000018,290.10300000000001
2014-07-25,15:30,206.645,293.07833333333343,94352.633333333331,76.960333333333338,-2.0753333333333339,-9999.0,37.391999999999989,225.01166666666663,470.53333333333336,3.7466666666666657,184.92266666666669,0.23033333333333353,290.18266666666671
2014-07-25,16:00,206.666,292.77666666666676,94369.166666666672,79.675666666666672,-1.5736666666666668,-9.5666666666666682,11.542000000000002,72.432999999999979,161.52233333333334,2.4466666666666659,188.34500000000000,0.23000000000000018,290.17199999999991
2014-07-25,16:30,206.687,292.55133333333339,94374.433333333334,81.561333333333351,-0.80200000000000027,-8.4606666666666666,5.8793333333333324,38.150333333333343,89.691333333333347,2.9166666666666661,183.47699999999998,0.23000000000000018,290.07633333333342
2014-07-25,17:00,206.708,292.37566666666658,94368.333333333328,82.844999999999985,-0.29233333333333344,-7.5803333333333329,8.6286666666666676,51.153666666666659,114.32666666666667,2.7199999999999998,170.45433333333330,0.23000000000000018,289.99033333333341
2014-07-25,17:30,206.729,292.23666666666674,94365.433333333334,83.848666666666674,-0.31000000000000011,-7.2149999999999990,6.3066666666666658,37.356000000000002,84.647666666666652,3.7700000000000000,183.94466666666668,0.23000000000000018,289.92733333333331
2014-07-25,18:00,206.749,291.75333333333339,94356.433333333334,86.796999999999997,0.33799999999999997,-5.3770000000000007,4.5576666666666661,22.549999999999997,54.912666666666659,3.7800000000000007,184.87766666666667,0.23000000000000018,289.87966666666665
2014-07-25,18:30,206.770,291.34900000000005,94350.600000000006,89.293666666666667,0.77566666666666662,-3.9763333333333337,3.7196666666666678,16.827666666666666,41.592999999999996,4.4966666666666670,186.62199999999999,0.23000000000000018,289.82500000000005
2014-07-25,19:00,206.791,291.02333333333343,94339.566666666666,91.327666666666659,0.76133333333333331,-3.4493333333333331,2.6493333333333333,13.546666666666662,30.587333333333337,3.4766666666666661,180.48900000000000,0.23000000000000018,289.76500000000010
2014-07-25,19:30,206.812,291.06000000000017,94320.800000000003,90.605999999999995,0.49266666666666670,-3.7106666666666670,0.75166666666666693,4.5566666666666675,11.377333333333334,3.9633333333333334,181.68899999999999,0.23000000000000018,289.70666666666671
2014-07-25,20:00,206.833,291.06000000000017,94312.866666666669,90.445666666666696,0.43900000000000000,-4.0296666666666674,0.27000000000000007,0.30566666666666664,1.7559999999999996,4.5466666666666660,185.55499999999998,0.23000000000000018,289.66066666666660
2014-07-25,20:30,206.854,291.06000000000017,94297.533333333340,90.509000000000015,0.39000000000000001,-3.9839999999999995,0.19166666666666668,-0.57166666666666677,2.03333333333333317E-002,4.8599999999999994,188.40000000000001,0.23000000000000018,289.61766666666665
2014-07-25,21:00,206.874,291.02566666666667,94286.133333333331,90.686666666666710,0.31599999999999995,-5.0283333333333342,0.11900000000000004,-0.30933333333333329,-1.10000000000000028E-002,4.4633333333333329,185.63333333333333,0.23000000000000018,289.58800000000002
2014-07-25,21:30,206.895,290.95999999999998,94278.733333333337,90.866666666666703,0.33433333333333343,-5.9099999999999993,0.13900000000000004,-0.32166666666666666,-1.30000000000000029E-002,4.5733333333333333,190.07766666666666,0.23000000000000018,289.55500000000006
2014-07-25,22:00,206.916,290.95900000000000,94283.500000000000,91.243333333333325,0.33799999999999997,-6.6056666666666679,0.14333333333333334,-0.35766666666666663,-9.00000000000000105E-003,5.1133333333333324,189.74400000000000,0.23000000000000018,289.53066666666678
2014-07-25,22:30,206.937,290.87199999999996,94303.633333333331,91.700333333333361,0.44433333333333347,-3.9286666666666665,0.10433333333333339,-0.19833333333333336,-6.00000000000000012E-003,5.1299999999999999,193.44433333333333,0.23000000000000018,289.51400000000012
2014-07-25,23:00,206.958,290.85999999999990,94303.199999999997,91.802666666666624,0.37833333333333324,-6.4353333333333333,0.13899999999999998,-0.33766666666666656,-1.10000000000000028E-002,5.5599999999999996,192.59999999999999,0.23000000000000018,289.50166666666667
2014-07-25,23:30,206.979,290.85999999999990,94281.133333333331,91.628666666666632,0.32266666666666671,-7.3269999999999991,0.12866666666666668,-0.38433333333333330,-1.10000000000000011E-002,6.3433333333333337,188.07833333333335,0.23000000000000018,289.49466666666660
2014-07-26,00:00,207.000,290.85999999999990,94291.433333333334,91.690000000000012,0.35299999999999998,-6.8823333333333343,0.15200000000000002,-0.36700000000000005,-6.00000000000000012E-003,5.2466666666666661,192.47766666666666,0.23000000000000018,289.48133333333328
